Location: Vihti�l�
(61.3833°N, 23.0667°E)
Time: 04:34:17
(UTC+00:00)

Cosmos 2242 Rocket - Pass Details

Date: 29 November 2020
Orbit: 618 x 651 km, 82.5° (Epoch: 19 January)

Event Time Altitude Azimuth Distance (km) Brightness Sun altitude
Exits shadow 05:27:59 - 345° (NNW) 2,624 6.4 -10.7°
Reaches altitude 10° 05:29:28 10° 345° (NNW) 2,026 5.8 -10.5°
Maximum altitude 05:33:58 90° 120° (ESE) 636 3.6 -10.0°
Drops below altitude 10° 05:38:24 10° 167° (SSE) 1,994 6.8 -9.6°
Sets 05:40:36 0° 167° (SSE) 2,893 7.7 -9.3°
